• In United Kingdom
  • List of Countries
  • For 7 days
  • Water Temperature
  • Satellite Maps
  • Weather Map
  • Weather Widgets
  • user-avatar
    Login

    Hourly Weather Udzierz

    Today, 24 June, Sunday

    Time Temperature Precipitation Wind Pressure Humidity
    00:00 +9°C° 0 mm 2 mps 752 mmHg 86%
    01:00 +9°C° 0 mm 2 mps 752 mmHg 88%
    02:00 +10°C° 0.1 mm 3 mps 752 mmHg 88%
    03:00 +10°C° 0.1 mm 3 mps 752 mmHg 88%
    04:00 +10°C° 0.1 mm 3 mps 752 mmHg 88%
    05:00 +11°C° 0.4 mm 3 mps 752 mmHg 87%
    06:00 +12°C° 0.4 mm 3 mps 752 mmHg 87%
    07:00 +12°C° 0.4 mm 3 mps 752 mmHg 86%
    08:00 +13°C° 0.5 mm 4 mps 752 mmHg 82%
    09:00 +14°C° 0.5 mm 4 mps 752 mmHg 78%
    10:00 +15°C° 0.5 mm 4 mps 752 mmHg 74%
    11:00 +17°C° 0.4 mm 4 mps 752 mmHg 69%
    12:00 +17°C° 0.4 mm 5 mps 752 mmHg 64%
    13:00 +19°C° 0.4 mm 5 mps 752 mmHg 59%
    14:00 +19°C° 0.3 mm 5 mps 752 mmHg 58%
    15:00 +19°C° 0.3 mm 5 mps 752 mmHg 57%
    16:00 +19°C° 0.3 mm 5 mps 752 mmHg 56%
    17:00 +18°C° 0.2 mm 4 mps 752 mmHg 61%
    18:00 +17°C° 0.2 mm 3 mps 752 mmHg 66%
    19:00 +16°C° 0.2 mm 2 mps 752 mmHg 71%
    20:00 +14°C° 0 mm 2 mps 753 mmHg 75%
    21:00 +13°C° 0 mm 1 mps 753 mmHg 80%
    22:00 +11°C° 0 mm 1 mps 753 mmHg 85%
    23:00 +11°C° 0 mm 1 mps 753 mmHg 85%

    Tomorrow, 25 June, Monday

    Time Temperature Precipitation Wind Pressure Humidity
    00:00 +11°C° 0 mm 1 mps 753 mmHg 85%
    01:00 +10°C° 0 mm 2 mps 753 mmHg 86%
    02:00 +10°C° 0 mm 2 mps 753 mmHg 86%
    03:00 +10°C° 0 mm 2 mps 754 mmHg 87%
    04:00 +10°C° 0 mm 2 mps 754 mmHg 87%
    05:00 +12°C° 0 mm 3 mps 754 mmHg 83%
    06:00 +13°C° 0 mm 3 mps 754 mmHg 79%
    07:00 +16°C° 0 mm 3 mps 754 mmHg 74%
    08:00 +17°C° 0.3 mm 3 mps 754 mmHg 69%
    09:00 +19°C° 0.3 mm 3 mps 755 mmHg 63%
    10:00 +20°C° 0.3 mm 4 mps 755 mmHg 58%
    11:00 +20°C° 0.3 mm 4 mps 755 mmHg 57%
    12:00 +21°C° 0.3 mm 4 mps 755 mmHg 56%
    13:00 +21°C° 0.3 mm 4 mps 755 mmHg 55%
    14:00 +21°C° 0.2 mm 3 mps 755 mmHg 54%
    15:00 +21°C° 0.2 mm 3 mps 755 mmHg 54%
    16:00 +21°C° 0.2 mm 3 mps 755 mmHg 54%
    17:00 +20°C° 0.1 mm 2 mps 755 mmHg 58%
    18:00 +20°C° 0.1 mm 2 mps 755 mmHg 61%
    19:00 +19°C° 0.1 mm 2 mps 756 mmHg 65%
    20:00 +17°C° 0 mm 2 mps 756 mmHg 70%
    21:00 +16°C° 0 mm 2 mps 756 mmHg 74%
    22:00 +14°C° 0 mm 2 mps 756 mmHg 78%
    23:00 +14°C° 0 mm 2 mps 756 mmHg 81%

    Day after tomorrow, 26 June, Tuesday

    Time Temperature Precipitation Wind Pressure Humidity
    00:00 +13°C° 0 mm 2 mps 756 mmHg 84%
    01:00 +12°C° 0 mm 3 mps 756 mmHg 87%
    02:00 +12°C° 0 mm 3 mps 756 mmHg 86%
    03:00 +13°C° 0 mm 3 mps 756 mmHg 86%
    04:00 +13°C° 0 mm 3 mps 756 mmHg 85%
    05:00 +14°C° 0.1 mm 3 mps 756 mmHg 85%
    06:00 +16°C° 0.1 mm 3 mps 756 mmHg 85%
    07:00 +16°C° 0.1 mm 3 mps 756 mmHg 84%
    08:00 +18°C° 0.5 mm 4 mps 757 mmHg 79%
    09:00 +19°C° 0.5 mm 4 mps 757 mmHg 73%
    10:00 +21°C° 0.5 mm 4 mps 757 mmHg 67%
    11:00 +21°C° 0.6 mm 4 mps 757 mmHg 64%
    12:00 +22°C° 0.6 mm 4 mps 757 mmHg 61%
    13:00 +22°C° 0.6 mm 5 mps 757 mmHg 58%
    14:00 +22°C° 0.2 mm 5 mps 757 mmHg 58%
    15:00 +22°C° 0.2 mm 5 mps 757 mmHg 58%
    16:00 +21°C° 0.2 mm 5 mps 757 mmHg 58%
    17:00 +20°C° 0 mm 5 mps 757 mmHg 63%
    18:00 +19°C° 0 mm 4 mps 757 mmHg 67%
    19:00 +17°C° 0 mm 4 mps 757 mmHg 72%
    20:00 +16°C° 0 mm 3 mps 757 mmHg 78%
    21:00 +13°C° 0 mm 3 mps 758 mmHg 84%
    22:00 +13°C° 0 mm 2 mps 758 mmHg 90%
    23:00 +13°C° 0 mm 2 mps 758 mmHg 92%

    27 June, Wednesday

    Time Temperature Precipitation Wind Pressure Humidity
    00:00 +11°C° 0 mm 3 mps 758 mmHg 94%
    01:00 +11°C° 0 mm 3 mps 758 mmHg 95%
    02:00 +11°C° 0 mm 3 mps 758 mmHg 96%
    03:00 +11°C° 0 mm 3 mps 758 mmHg 96%
    04:00 +11°C° 0 mm 3 mps 758 mmHg 96%
    05:00 +13°C° 0 mm 4 mps 758 mmHg 89%
    06:00 +15°C° 0 mm 4 mps 759 mmHg 82%
    07:00 +16°C° 0 mm 5 mps 759 mmHg 76%
    08:00 +17°C° 0.1 mm 5 mps 759 mmHg 71%
    09:00 +20°C° 0.1 mm 5 mps 759 mmHg 66%
    10:00 +21°C° 0.1 mm 6 mps 758 mmHg 61%
    11:00 +21°C° 0.1 mm 6 mps 758 mmHg 60%
    12:00 +22°C° 0.1 mm 6 mps 758 mmHg 58%
    13:00 +22°C° 0.1 mm 6 mps 758 mmHg 56%
    14:00 +22°C° 0.2 mm 6 mps 758 mmHg 58%
    15:00 +22°C° 0.2 mm 6 mps 757 mmHg 61%
    16:00 +21°C° 0.2 mm 7 mps 757 mmHg 63%
    17:00 +20°C° 0.1 mm 6 mps 757 mmHg 68%
    18:00 +20°C° 0.1 mm 5 mps 757 mmHg 73%
    19:00 +19°C° 0.1 mm 4 mps 757 mmHg 78%
    20:00 +18°C° 0.1 mm 4 mps 757 mmHg 83%
    21:00 +17°C° 0.1 mm 4 mps 757 mmHg 88%
    22:00 +14°C° 0.1 mm 3 mps 757 mmHg 93%
    23:00 +14°C° 0.1 mm 3 mps 757 mmHg 94%

    28 June, Thursday

    Time Temperature Precipitation Wind Pressure Humidity
    00:00 +14°C° 0.1 mm 3 mps 757 mmHg 95%
    01:00 +14°C° 0.1 mm 3 mps 757 mmHg 96%
    02:00 +14°C° 0 mm 3 mps 756 mmHg 96%
    03:00 +14°C° 0 mm 3 mps 756 mmHg 96%
    04:00 +14°C° 0 mm 3 mps 756 mmHg 97%
    05:00 +15°C° 0 mm 4 mps 756 mmHg 94%
    06:00 +17°C° 0 mm 4 mps 756 mmHg 91%
    07:00 +18°C° 0 mm 4 mps 756 mmHg 88%
    08:00 +18°C° 0.6 mm 4 mps 756 mmHg 87%
    09:00 +18°C° 0.6 mm 4 mps 755 mmHg 87%
    10:00 +18°C° 0.6 mm 4 mps 755 mmHg 86%
    11:00 +19°C° 0.3 mm 4 mps 754 mmHg 83%
    12:00 +20°C° 0.3 mm 5 mps 754 mmHg 79%
    13:00 +21°C° 0.3 mm 6 mps 754 mmHg 76%
    14:00 +21°C° 0.9 mm 6 mps 753 mmHg 80%
    15:00 +20°C° 0.9 mm 5 mps 753 mmHg 84%
    16:00 +19°C° 0.9 mm 5 mps 752 mmHg 88%
    17:00 +19°C° 1.8 mm 5 mps 751 mmHg 91%
    18:00 +17°C° 1.8 mm 5 mps 751 mmHg 93%
    19:00 +17°C° 1.8 mm 5 mps 750 mmHg 95%
    20:00 +17°C° 2.3 mm 5 mps 750 mmHg 95%
    21:00 +17°C° 2.3 mm 5 mps 749 mmHg 95%
    22:00 +17°C° 2.3 mm 6 mps 748 mmHg 95%
    23:00 +17°C° 2 mm 5 mps 748 mmHg 95%

    29 June, Friday

    Time Temperature Precipitation Wind Pressure Humidity
    00:00 +17°C° 2 mm 5 mps 747 mmHg 96%
    01:00 +17°C° 2 mm 5 mps 747 mmHg 96%
    02:00 +17°C° 1.8 mm 5 mps 746 mmHg 96%
    03:00 +18°C° 1.8 mm 4 mps 746 mmHg 97%
    04:00 +18°C° 1.8 mm 4 mps 746 mmHg 97%
    05:00 +18°C° 0.6 mm 4 mps 746 mmHg 97%
    06:00 +19°C° 0.6 mm 4 mps 746 mmHg 96%
    07:00 +19°C° 0.6 mm 3 mps 746 mmHg 96%
    08:00 +19°C° 0.5 mm 3 mps 746 mmHg 95%
    09:00 +19°C° 0.5 mm 3 mps 746 mmHg 94%
    10:00 +19°C° 0.5 mm 3 mps 746 mmHg 94%
    11:00 +19°C° 0.4 mm 3 mps 746 mmHg 93%
    12:00 +19°C° 0.4 mm 3 mps 746 mmHg 92%
    13:00 +20°C° 0.4 mm 3 mps 747 mmHg 91%
    14:00 +20°C° 0.4 mm 3 mps 747 mmHg 91%
    15:00 +19°C° 0.4 mm 3 mps 747 mmHg 92%
    16:00 +19°C° 0.4 mm 2 mps 747 mmHg 92%
    17:00 +19°C° 0.4 mm 3 mps 747 mmHg 93%
    18:00 +19°C° 0.4 mm 3 mps 747 mmHg 94%
    19:00 +18°C° 0.4 mm 3 mps 747 mmHg 96%
    20:00 +18°C° 0.4 mm 3 mps 747 mmHg 96%
    21:00 +18°C° 0.4 mm 3 mps 747 mmHg 96%
    22:00 +17°C° 0.4 mm 3 mps 747 mmHg 97%
    23:00 +17°C° 0.5 mm 3 mps 747 mmHg 97%
    Show more